Content
SEND FEEDBACK

Daily
Averages
Monthly
Summary
United States of America

FAIRHAVEN, ALASKA


Home > North America > United States > Alaska
Elevation: 12 feet     Latitude: 58 25N     Longitude: 134 32W

WEATHER
 
SELECT A DAY
Number of Records: 198,695;   Date Range: 1/1/95 - 12/17/14
 
SHARE

PRINT THIS DATA

[ ← Previous Day ]
WEATHER ALMANAC - FEBRUARY 13, 2013
[ Next Day → ]
[ °C ]   °F
Weather ElementAverageHighLow
Temperature33.9 °F36 °F (12:53 pm)30.9 °F (3:53 am)
Dewpoint31 °F32 °F (10:53 am)28.9 °F (1:53 am)
Humidity89.3 %96 % (3:53 am)82 % (6:53 pm)
Barometer30.19 in30.24 in (11:53 am)30.12 in (11:53 pm)
Wind Speed12.6 mph19.6 mph (9:53 pm)
Wind Gust27.6 mph (9:53 pm)
Weather ElementAverage
Visibility7.7 mi
Wind DirectionE (92.8 °)

Weather ElementTotal
Precipitation0.06 in
Heating Degree Days31.6 (Base 65)
Averaged from 29 records on February 13, 2013
WEATHER CONDITIONS BREAKOUT
WIND DIRECTION BREAKOUT
WEATHER BY HOUR - FEBRUARY 13, 2013
[ °C ]   °F
Local TimeTemperatureDewpointHumidityBarometerVisibilityWind DirectionWind SpeedGust SpeedPrecipitationEventsConditions
1:53 AM33.1 °F28.9 °F85 %30.16 in10.0 miEast (80°)8.1 mphOvercast
3:39 AM32.0 °F28.9 °F88 %30.19 in2.5 miEast (80°)8.1 mph0.00 inSnowLight Snow
3:53 AM30.9 °F30.0 °F96 %30.19 in1.5 miEast (80°)8.1 mph0.01 inSnowLight Snow
4:11 AM30.9 °F30.0 °F96 %30.20 in2.0 miEast (80°)6.9 mph0.01 inSnowLight Snow
4:53 AM30.9 °F30.0 °F96 %30.19 in2.0 miENE (70°)8.1 mph0.02 inSnowLight Snow
5:13 AM32.0 °F28.9 °F88 %30.19 in4.0 miENE (70°)8.1 mph0.00 inSnowLight Snow
5:38 AM32.0 °F30.0 °F92 %30.19 in5.0 miENE (70°)11.5 mph0.00 inSnowLight Snow
5:53 AM32.0 °F30.0 °F92 %30.19 in5.0 miEast (80°)11.5 mph0.00 inSnowLight Snow
6:53 AM33.1 °F30.9 °F92 %30.18 in9.0 miEast (80°)12.7 mph21.9 mph0.00 inSnowLight Snow
7:53 AM33.1 °F30.9 °F92 %30.20 in8.0 miEast (80°)9.2 mph0.00 inSnowLight Snow
8:53 AM33.1 °F30.9 °F92 %30.22 in8.0 miEast (90°)12.7 mph0.00 inSnowLight Snow
9:16 AM33.1 °F30.9 °F92 %30.22 in4.0 miEast (80°)11.5 mph0.00 inSnowLight Snow
9:33 AM33.1 °F30.9 °F92 %30.22 in6.0 miEast (80°)10.4 mph0.00 inSnowLight Snow
9:53 AM33.1 °F30.9 °F92 %30.22 in8.0 miEast (80°)11.5 mph0.01 inSnowLight Snow
10:53 AM35.1 °F32.0 °F89 %30.23 in10.0 miEast (100°)13.8 mph0.00 inOvercast
11:53 AM35.1 °F32.0 °F89 %30.24 in10.0 miESE (110°)13.8 mph0.00 inRainLight Rain
12:53 PM36.0 °F32.0 °F86 %30.24 in10.0 miESE (110°)15.0 mph0.00 inOvercast
1:53 PM36.0 °F32.0 °F86 %30.24 in10.0 miESE (110°)13.8 mphOvercast
2:03 PM36.0 °F32.0 °F86 %30.23 in10.0 miESE (110°)15.0 mphOvercast
2:53 PM36.0 °F32.0 °F86 %30.22 in10.0 miESE (110°)15.0 mphOvercast
3:53 PM36.0 °F32.0 °F86 %30.19 in10.0 miESE (110°)15.0 mph0.00 inRainLight Rain
4:53 PM36.0 °F32.0 °F86 %30.19 in10.0 miESE (110°)15.0 mph0.00 inOvercast
5:53 PM36.0 °F32.0 °F86 %30.18 in10.0 miESE (110°)15.0 mph0.00 inRainLight Rain
6:53 PM36.0 °F30.9 °F82 %30.18 in10.0 miESE (110°)13.8 mph0.00 inRainLight Rain
7:53 PM36.0 °F30.9 °F82 %30.17 in10.0 miEast (100°)15.0 mph0.00 inRainLight Rain
8:53 PM35.1 °F32.0 °F89 %30.18 in9.0 miESE (110°)17.3 mph0.00 inRain-SnowLight Rain
9:53 PM35.1 °F30.9 °F85 %30.14 in10.0 miESE (110°)19.6 mph27.6 mph0.00 inRain-SnowLight Rain
10:53 PM34.0 °F32.0 °F92 %30.14 in10.0 miEast (90°)12.7 mph0.00 inRain-SnowLight Snow
11:53 PM33.1 °F32.0 °F96 %30.12 in10.0 miEast (90°)18.4 mph0.01 inRain-SnowLight Snow
Hourly data recorded from PAJN, located miles away from Fairhaven, Alaska







STORIES FROM OUR PARTNERS